This is the latest recevied weather packets stored in our database for station/object NC4M. If no packets are shown the sender has not sent any weather packets the latest 10 day(s).
| Time | Temp. | Humidity | Pressure | Rain* | Wind** | Luminosity | Snow |
|---|---|---|---|---|---|---|---|
| 1777500411 | 17.22° C | 44% | 1016.7 hPa | 0 mm | - | 167 W/m² | - |
| 1777500107 | 17.22° C | 44% | 1016.9 hPa | 0 mm | - | 284 W/m² | - |
| 1777499804 | 17.22° C | 46% | 1016.8 hPa | 0 mm | - | 434 W/m² | - |
| 1777499500 | 17.22° C | 45% | 1017.1 hPa | 0 mm | - | 401 W/m² | - |
| 1777499199 | 16.67° C | 50% | 1017 hPa | 0 mm | - | 381 W/m² | - |
| 1777498895 | 16.67° C | 47% | 1017.1 hPa | 0 mm | - | 280 W/m² | - |
| 1777498592 | 17.22° C | 46% | 1017 hPa | 0 mm | - | 285 W/m² | - |
| 1777498287 | 17.22° C | 44% | 1017.3 hPa | 0 mm | - | 433 W/m² | - |
| 1777497986 | 17.22° C | 45% | 1017.3 hPa | 0 mm | - | 408 W/m² | - |
| 1777497682 | 17.78° C | 45% | 1017.1 hPa | 0 mm | - | 429 W/m² | - |
| 1777497379 | 17.78° C | 44% | 1017.3 hPa | 0 mm | - | 389 W/m² | - |
| 1777497075 | 17.78° C | 45% | 1017.1 hPa | 0 mm | - | 409 W/m² | - |
| 1777496771 | 17.22° C | 45% | 1017 hPa | 0 mm | - | 618 W/m² | - |
| 1777496468 | 16.67° C | 47% | 1017.1 hPa | 0 mm | - | 523 W/m² | - |
| 1777496165 | 16.67° C | 48% | 1017.1 hPa | 0 mm | - | 349 W/m² | - |
| 1777495861 | 16.67° C | 50% | 1017.1 hPa | 0 mm | - | 296 W/m² | - |
| 1777495557 | 16.11° C | 47% | 1017.1 hPa | 0 mm | - | 252 W/m² | - |
| 1777495253 | 16.11° C | 50% | 1017.1 hPa | 0 mm | - | 302 W/m² | - |
| 1777494950 | 16.67° C | 48% | 1017.4 hPa | 0 mm | - | 278 W/m² | - |
| 1777494647 | 16.67° C | 49% | 1017.3 hPa | 0 mm | - | 239 W/m² | - |
| 1777494345 | 17.22° C | 52% | 1017.1 hPa | 0 mm | - | 308 W/m² | - |
| 1777494041 | 17.22° C | 46% | 1017.3 hPa | 0 mm | - | 386 W/m² | - |
| 1777493739 | 17.22° C | 49% | 1017.5 hPa | 0 mm | - | 264 W/m² | - |
| 1777493437 | 16.67° C | 51% | 1017.5 hPa | 0 mm | - | 289 W/m² | - |
| 1777493132 | 17.22° C | 50% | 1017.6 hPa | 0 mm | - | 306 W/m² | - |
* Rain latest hour (hover to see other rain measurements)
** Current wind speed in m/s (hover to see current wind gust speed)